Content
SEND FEEDBACK

Daily
Averages
Monthly
Summary
United States of America

ST. LOUIS, MISSOURI


Home > North America > United States > Missouri
Elevation: 163 meters     Latitude: 38 45N     Longitude: 090 22W

WEATHER
 
SELECT A DAY
Number of Records: 196,619;   Date Range: 1/1/95 - 9/16/14
 
SHARE

PRINT THIS DATA

[ ← Previous Day ]
WEATHER ALMANAC - 9 MAY, 2013
[ Next Day → ]
[ °F ]   °C
Weather ElementAverageHighLow
Temperature20.2 °C24.4 °C (5:54 pm)17.2 °C (1:54 am)
Dewpoint15.1 °C17 °C (1:46 pm)13.3 °C (2:54 am)
Humidity72.9 %90 % (1:54 am)53 % (6:54 pm)
Barometer1012.2 hPa1013.9 hPa (1:54 am)1009.8 hPa (6:54 pm)
Wind Speed7.4 km/h31.5 km/h (3:54 pm)
Wind Gust33.3 km/h (4:54 pm)
Weather ElementAverage
Visibility16.1 km
Wind DirectionESE (115 °)

Weather ElementTotal
Precipitation---
Cooling Degree Days2.5 (Base 18.3)
Growing Degree Days10.8 (Base 10)
Averaged from 26 records on 9 May, 2013
WEATHER CONDITIONS BREAKOUT
WIND DIRECTION BREAKOUT
WEATHER BY HOUR - 9 MAY, 2013
[ °F ]   °C
Local TimeTemperatureDewpointHumidityBarometerVisibilityWind DirectionWind SpeedGust SpeedPrecipitationEventsConditions
1:54 AM17.2 °C15.6 °C90 %1013.9 hPa16.1 kmCalmPartly Cloudy
2:54 AM18.3 °C13.3 °C73 %1013.5 hPa16.1 kmCalmMostly Cloudy
3:54 AM17.2 °C14.4 °C84 %1013.2 hPa16.1 kmCalmOvercast
4:54 AM17.8 °C13.9 °C78 %1012.9 hPa16.1 kmCalmOvercast
5:54 AM18.3 °C13.9 °C75 %1012.9 hPa16.1 kmSouth (190°)7.4 km/hMostly Cloudy
6:54 AM19.4 °C13.9 °C70 %1012.9 hPa16.1 kmVariable7.4 km/hClear
7:54 AM20.6 °C14.4 °C68 %1012.5 hPa16.1 kmSSE (160°)5.6 km/hMostly Cloudy
8:54 AM21.1 °C15.6 °C71 %1012.9 hPa16.1 kmNorth (350°)5.6 km/hMostly Cloudy
9:05 AM21 °C15 °C68 %1013.2 hPa16.1 kmCalmThunderstormMostly Cloudy
9:36 AM21 °C16 °C73 %1013.2 hPa16.1 kmWest (270°)14.8 km/hOvercast
9:54 AM20 °C15.6 °C76 %1013.2 hPa16.1 kmWSW (240°)11.1 km/h0 mmRainLight Rain
10:54 AM20.6 °C15.6 °C73 %1013.2 hPa16.1 kmCalm0 mmRainLight Rain
11:54 AM19 °C16 °C83 %1012.5 hPa16.1 kmESE (120°)5.6 km/hOvercast
12:54 PM20.6 °C16.7 °C78 %1011.9 hPa16.1 kmCalm0 mmMostly Cloudy
1:46 PM22 °C17 °C73 %1011.9 hPa16.1 kmSSW (200°)13 km/hOvercast
1:54 PM21.7 °C16.7 °C73 %1011.5 hPa16.1 kmSW (220°)14.8 km/hOvercast
2:54 PM21.7 °C15.6 °C68 %1011.2 hPa16.1 kmWSW (240°)18.5 km/hOvercast
3:54 PM23.3 °C15.6 °C62 %1010.8 hPa16.1 kmWSW (250°)31.5 km/hScattered Clouds
4:54 PM23.9 °C15 °C57 %1010.5 hPa16.1 kmWSW (240°)24.1 km/h33.3 km/hScattered Clouds
5:54 PM24.4 °C14.4 °C54 %1010.5 hPa16.1 kmWest (260°)14.8 km/h33.3 km/hScattered Clouds
6:54 PM23.9 °C13.9 °C53 %1009.8 hPa16.1 kmWSW (250°)18.5 km/hMostly Cloudy
7:54 PM21.1 °C13.9 °C63 %1010.2 hPa16.1 kmCalmMostly Cloudy
8:54 PM18.3 °C15 °C81 %1011.2 hPa16.1 kmCalmMostly Cloudy
9:54 PM17.2 °C14.4 °C84 %1011.9 hPa16.1 kmCalmClear
10:54 PM17.2 °C14.4 °C84 %1011.9 hPa16.1 kmCalmClear
11:54 PM17.8 °C15 °C84 %1011.9 hPa16.1 kmCalmPartly Cloudy
Hourly data recorded from KSUS, located 0 kilometers away from St. Louis, Missouri







STORIES FROM OUR PARTNERS